Location: Praha
(50.0830°N, 14.4670°E)
Time: 17:51:24
(UTC+02:00)

ISS - Pass Details

Date: 25 May 2020
Orbit: 417 x 420 km, 51.6° (Epoch: 26 May)

Event Time Altitude Azimuth Distance (km) Brightness Sun altitude
Rises 22:19:41 0° 283° (WNW) 2,366 0.9 -10.5°
Reaches altitude 10° 22:21:47 10° 285° (WNW) 1,502 -0.1 -10.7°
Maximum altitude 22:25:09 80° 12° (NNE) 431 -3.7 -11.0°
Enters shadow 22:28:26 11° 100° (E) 1,458 -1.4 -11.4°
